| time (UTC) | temp C | wind direction | speed KPH | gust KPH | rain 1hr cm | rain 24hr cm | rain mn cm | humidity % | barometer mb |
| 20260510153411 | 21 | 70 | 3.2 | 3.2 | 0.00 | 0.00 | 0.00 | 67 | 1013.1 |
| 20260510152907 | 20 | 109 | 0.0 | 0.0 | 0.00 | 0.00 | 0.00 | 70 | 1013.3 |
| 20260510152405 | 20 | 110 | 3.2 | 3.2 | 0.00 | 0.00 | 0.00 | 72 | 1013.2 |
| 20260510151901 | 20 | 106 | 3.2 | 3.2 | 0.00 | 0.00 | 0.00 | 73 | 1013.4 |
| 20260510151359 | 19 | 178 | 1.6 | 3.2 | 0.00 | 0.00 | 0.00 | 74 | 1013.1 |
| 20260510150855 | 19 | 244 | 3.2 | 3.2 | 0.00 | 0.00 | 0.00 | 76 | 1013.2 |
| 20260510150351 | 18 | 245 | 6.4 | 4.8 | 0.00 | 0.00 | 0.00 | 77 | 1013.4 |
| 20260510145847 | 18 | 99 | 3.2 | 3.2 | 0.00 | 0.00 | 0.00 | 76 | 1013.0 |
| 20260510145343 | 17 | 8 | 0.0 | 0.0 | 0.00 | 0.00 | 0.00 | 81 | 1013.5 |
| 20260510144840 | 17 | 346 | 1.6 | 3.2 | 0.00 | 0.00 | 0.00 | 79 | 1013.4 |
| 20260510144337 | 17 | 215 | 1.6 | 0.0 | 0.00 | 0.00 | 0.00 | 80 | 1013.2 |
| 20260510143837 | 16 | 212 | 3.2 | 3.2 | 0.00 | 0.00 | 0.00 | 82 | 1013.3 |
| 20260510143333 | 16 | 251 | 4.8 | 4.8 | 0.00 | 0.00 | 0.00 | 82 | 1013.4 |
| 20260510142831 | 16 | 255 | 1.6 | 3.2 | 0.00 | 0.00 | 0.00 | 84 | 1013.6 |
| 20260510142327 | 15 | 254 | 4.8 | 4.8 | 0.00 | 0.00 | 0.00 | 87 | 1013.3 |
| 20260510141824 | 15 | 255 | 3.2 | 4.8 | 0.00 | 0.00 | 0.00 | 87 | 1013.5 |
| 20260510141321 | 15 | 254 | 4.8 | 4.8 | 0.00 | 0.00 | 0.00 | 87 | 1013.3 |
| 20260510140819 | 15 | 268 | 0.0 | 0.0 | 0.00 | 0.00 | 0.00 | 88 | 1013.5 |
| 20260510140315 | 15 | 298 | 3.2 | 4.8 | 0.00 | 0.00 | 0.00 | 91 | 1013.5 |
| 20260510135813 | 14 | 334 | 0.0 | 0.0 | 0.00 | 0.00 | 0.00 | 91 | 1013.4 |
| 20260510135309 | 14 | 303 | 3.2 | 3.2 | 0.00 | 0.00 | 0.00 | 92 | 1013.4 |
| 20260510134807 | 14 | 303 | 0.0 | 0.0 | 0.00 | 0.00 | 0.00 | 95 | 1013.4 |
| 20260510134304 | 13 | 303 | 0.0 | 0.0 | 0.00 | 0.00 | 0.00 | 97 | 1013.3 |
| 20260510133759 | 13 | 305 | 0.0 | 0.0 | 0.00 | 0.00 | 0.00 | 98 | 1013.3 |
| 20260510133256 | 13 | 305 | 0.0 | 0.0 | 0.00 | 0.00 | 0.00 | 98 | 1013.3 |
| 20260510132751 | 13 | 305 | 0.0 | 0.0 | 0.00 | 0.00 | 0.00 | 99 | 1013.3 |
| 20260510132250 | 13 | 305 | 0.0 | 0.0 | 0.00 | 0.00 | 0.00 | 99 | 1013.3 |
| 20260510131746 | 12 | 304 | 0.0 | 0.0 | 0.00 | 0.00 | 0.00 | 99 | 1013.4 |
| 20260510131245 | 12 | 304 | 1.6 | 3.2 | 0.00 | 0.00 | 0.00 | 99 | 1013.3 |
| 20260510130740 | 12 | 305 | 1.6 | 3.2 | 0.00 | 0.00 | 0.00 | 99 | 1013.3 |
| 20260510130238 | 12 | 304 | 0.0 | 0.0 | 0.00 | 0.00 | 0.00 | 99 | 1013.3 |
| 20260510125734 | 12 | 304 | 0.0 | 0.0 | 0.00 | 0.00 | 0.00 | 99 | 1013.3 |
| 20260510125230 | 12 | 304 | 1.6 | 3.2 | 0.00 | 0.00 | 0.00 | 99 | 1013.3 |
| 20260510124726 | 12 | 304 | 1.6 | 3.2 | 0.00 | 0.00 | 0.00 | 99 | 1013.5 |
| 20260510124225 | 12 | 304 | 0.0 | 0.0 | 0.00 | 0.00 | 0.00 | 99 | 1013.7 |
| 20260510123719 | 12 | 304 | 0.0 | 0.0 | 0.00 | 0.00 | 0.00 | 99 | 1013.4 |
| 20260510123215 | 12 | 304 | 0.0 | 0.0 | 0.00 | 0.00 | 0.00 | 99 | 1013.2 |
| 20260510122712 | 12 | 304 | 0.0 | 0.0 | 0.00 | 0.00 | 0.00 | 99 | 1013.1 |
| 20260510122209 | 12 | 304 | 0.0 | 0.0 | 0.00 | 0.00 | 0.00 | 99 | 1013.1 |
| 20260510121705 | 11 | 304 | 0.0 | 0.0 | 0.00 | 0.00 | 0.00 | 99 | 1012.9 |
| 20260510121203 | 11 | 304 | 3.2 | 3.2 | 0.00 | 0.00 | 0.00 | 99 | 1013.0 |
| 20260510120659 | 11 | 304 | 3.2 | 3.2 | 0.00 | 0.00 | 0.00 | 99 | 1012.8 |
| 20260510120156 | 11 | 304 | 0.0 | 0.0 | 0.00 | 0.00 | 0.00 | 99 | 1013.0 |
| 20260510115652 | 11 | 304 | 0.0 | 0.0 | 0.00 | 0.00 | 0.00 | 99 | 1012.6 |
| 20260510115150 | 11 | 304 | 0.0 | 0.0 | 0.00 | 0.00 | 0.00 | 99 | 1012.5 |
| 20260510114645 | 11 | 304 | 0.0 | 0.0 | 0.00 | 0.00 | 0.00 | 99 | 1012.5 |
| 20260510114142 | 11 | 304 | 0.0 | 0.0 | 0.00 | 0.00 | 0.00 | 99 | 1012.5 |
| 20260510113637 | 11 | 304 | 0.0 | 0.0 | 0.00 | 0.00 | 0.00 | 99 | 1012.6 |
| 20260510113134 | 11 | 303 | 1.6 | 0.0 | 0.00 | 0.00 | 0.00 | 99 | 1012.3 |
| 20260510112631 | 11 | 339 | 0.0 | 0.0 | 0.00 | 0.00 | 0.00 | 99 | 1012.2 |
| 20260510112128 | 11 | 338 | 1.6 | 0.0 | 0.00 | 0.00 | 0.00 | 99 | 1012.3 |
| 20260510111624 | 11 | 337 | 3.2 | 3.2 | 0.00 | 0.00 | 0.00 | 99 | 1012.4 |
| 20260510111120 | 11 | 4 | 0.0 | 0.0 | 0.00 | 0.00 | 0.00 | 99 | 1012.3 |
| 20260510110616 | 11 | 4 | 0.0 | 0.0 | 0.00 | 0.00 | 0.00 | 99 | 1012.3 |
| 20260510110113 | 11 | 4 | 0.0 | 0.0 | 0.00 | 0.00 | 0.00 | 99 | 1012.3 |
| 20260510105609 | 11 | 4 | 0.0 | 0.0 | 0.00 | 0.00 | 0.00 | 99 | 1012.1 |
| 20260510105103 | 11 | 4 | 0.0 | 0.0 | 0.00 | 0.00 | 0.00 | 99 | 1011.9 |
| 20260510104600 | 11 | 4 | 0.0 | 0.0 | 0.00 | 0.00 | 0.00 | 99 | 1012.1 |
| 20260510104057 | 11 | 4 | 0.0 | 0.0 | 0.00 | 0.00 | 0.00 | 99 | 1012.3 |
| 20260510103554 | 10 | 4 | 0.0 | 0.0 | 0.00 | 0.00 | 0.00 | 99 | 1012.3 |
| 20260510103050 | 10 | 4 | 0.0 | 0.0 | 0.00 | 0.00 | 0.00 | 99 | 1012.3 |
| 20260510102545 | 10 | 4 | 0.0 | 0.0 | 0.00 | 0.00 | 0.00 | 99 | 1011.9 |
| 20260510102041 | 10 | 4 | 0.0 | 0.0 | 0.00 | 0.00 | 0.00 | 99 | 1011.8 |
| 20260510101539 | 10 | 4 | 0.0 | 0.0 | 0.00 | 0.00 | 0.00 | 99 | 1011.9 |
| 20260510101038 | 10 | 4 | 0.0 | 0.0 | 0.00 | 0.00 | 0.00 | 99 | 1011.8 |
| 20260510100533 | 10 | 4 | 0.0 | 0.0 | 0.00 | 0.00 | 0.00 | 99 | 1011.9 |
| 20260510100031 | 10 | 4 | 0.0 | 0.0 | 0.00 | 0.00 | 0.00 | 99 | 1011.5 |
| 20260510095527 | 11 | 4 | 0.0 | 0.0 | 0.00 | 0.00 | 0.00 | 99 | 1011.5 |
| 20260510095026 | 11 | 4 | 0.0 | 0.0 | 0.00 | 0.00 | 0.00 | 99 | 1011.8 |
| 20260510094520 | 11 | 4 | 0.0 | 0.0 | 0.00 | 0.00 | 0.00 | 99 | 1012.0 |
| 20260510094017 | 11 | 4 | 0.0 | 0.0 | 0.00 | 0.00 | 0.00 | 99 | 1011.6 |
| 20260510093512 | 11 | 3 | 0.0 | 0.0 | 0.00 | 0.00 | 0.00 | 99 | 1011.7 |
| 20260510093009 | 11 | 4 | 0.0 | 0.0 | 0.00 | 0.00 | 0.00 | 99 | 1011.4 |
| 20260510092507 | 11 | 4 | 0.0 | 0.0 | 0.00 | 0.00 | 0.00 | 99 | 1011.7 |
| 20260510092006 | 11 | 3 | 0.0 | 0.0 | 0.00 | 0.00 | 0.00 | 99 | 1011.7 |
| 20260510091503 | 11 | 3 | 0.0 | 0.0 | 0.00 | 0.00 | 0.00 | 99 | 1011.4 |
| 20260510090959 | 11 | 4 | 0.0 | 0.0 | 0.00 | 0.00 | 0.00 | 99 | 1011.5 |
| 20260510090456 | 11 | 4 | 0.0 | 0.0 | 0.00 | 0.00 | 0.00 | 99 | 1011.3 |
| 20260510085951 | 11 | 4 | 3.2 | 3.2 | 0.00 | 0.00 | 0.00 | 99 | 1011.3 |
| 20260510085447 | 11 | 1 | 0.0 | 0.0 | 0.00 | 0.00 | 0.00 | 99 | 1011.3 |
| 20260510084943 | 10 | 1 | 0.0 | 0.0 | 0.00 | 0.00 | 0.00 | 99 | 1011.5 |
| 20260510084440 | 10 | 0 | 0.0 | 0.0 | 0.00 | 0.00 | 0.00 | 99 | 1011.7 |
| 20260510083936 | 10 | 0 | 0.0 | 0.0 | 0.00 | 0.00 | 0.00 | 99 | 1011.8 |
| 20260510083433 | 10 | 0 | 0.0 | 0.0 | 0.00 | 0.00 | 0.00 | 99 | 1011.8 |
| 20260510082928 | 10 | 1 | 0.0 | 0.0 | 0.00 | 0.00 | 0.00 | 99 | 1011.6 |
| 20260510082427 | 10 | 1 | 0.0 | 0.0 | 0.00 | 0.00 | 0.00 | 99 | 1011.5 |
| 20260510081925 | 10 | 0 | 3.2 | 3.2 | 0.00 | 0.00 | 0.00 | 99 | 1011.8 |
| 20260510081421 | 10 | 1 | 0.0 | 0.0 | 0.00 | 0.00 | 0.00 | 99 | 1011.9 |
| 20260510080918 | 10 | 0 | 0.0 | 0.0 | 0.00 | 0.00 | 0.00 | 98 | 1011.6 |
| 20260510080417 | 10 | 341 | 0.0 | 0.0 | 0.00 | 0.00 | 0.00 | 98 | 1011.9 |
| 20260510075914 | 10 | 1 | 1.6 | 0.0 | 0.00 | 0.00 | 0.00 | 98 | 1011.4 |
| 20260510075412 | 10 | 353 | 6.4 | 8.0 | 0.00 | 0.00 | 0.00 | 98 | 1011.5 |
| 20260510074908 | 10 | 344 | 3.2 | 3.2 | 0.00 | 0.00 | 0.00 | 98 | 1011.6 |
| 20260510074405 | 10 | 356 | 0.0 | 0.0 | 0.00 | 0.00 | 0.00 | 98 | 1011.1 |
| 20260510073902 | 10 | 356 | 0.0 | 0.0 | 0.00 | 0.00 | 0.00 | 98 | 1011.1 |
| 20260510073357 | 10 | 356 | 0.0 | 0.0 | 0.00 | 0.00 | 0.00 | 98 | 1010.9 |
| 20260510072854 | 10 | 356 | 0.0 | 0.0 | 0.00 | 0.00 | 0.00 | 98 | 1011.0 |
| 20260510072351 | 10 | 356 | 0.0 | 0.0 | 0.00 | 0.00 | 0.00 | 98 | 1011.1 |
| 20260510071847 | 10 | 356 | 0.0 | 0.0 | 0.00 | 0.00 | 0.00 | 98 | 1011.0 |
| 20260510071343 | 10 | 356 | 0.0 | 0.0 | 0.00 | 0.00 | 0.00 | 98 | 1011.0 |
| 20260510070842 | 10 | 356 | 0.0 | 0.0 | 0.00 | 0.00 | 0.00 | 98 | 1010.9 |
| 20260510070338 | 10 | 356 | 0.0 | 0.0 | 0.00 | 0.00 | 0.00 | 98 | 1011.0 |
| 20260510065833 | 10 | 356 | 0.0 | 0.0 | 0.00 | 0.00 | 0.00 | 98 | 1011.0 |
| 20260510065330 | 10 | 356 | 0.0 | 0.0 | 0.00 | 0.00 | 0.00 | 98 | 1011.0 |
| 20260510064827 | 10 | 356 | 0.0 | 0.0 | 0.00 | 0.00 | 0.00 | 98 | 1011.0 |
| 20260510064325 | 10 | 316 | 6.4 | 8.0 | 0.00 | 0.00 | 0.00 | 98 | 1011.1 |
| 20260510063821 | 10 | 344 | 3.2 | 3.2 | 0.00 | 0.00 | 0.00 | 98 | 1010.9 |
| 20260510063317 | 10 | 344 | 1.6 | 3.2 | 0.00 | 0.00 | 0.00 | 98 | 1010.9 |
| 20260510062814 | 10 | 347 | 3.2 | 4.8 | 0.00 | 0.00 | 0.00 | 98 | 1010.8 |
| 20260510062309 | 10 | 66 | 1.6 | 3.2 | 0.00 | 0.00 | 0.00 | 98 | 1010.5 |
| 20260510061805 | 10 | 98 | 0.0 | 0.0 | 0.00 | 0.00 | 0.00 | 98 | 1010.4 |
| 20260510061302 | 10 | 98 | 0.0 | 0.0 | 0.00 | 0.00 | 0.00 | 98 | 1010.3 |
| 20260510060758 | 10 | 98 | 0.0 | 0.0 | 0.00 | 0.00 | 0.00 | 98 | 1010.3 |
| 20260510060255 | 9 | 98 | 0.0 | 0.0 | 0.00 | 0.00 | 0.00 | 98 | 1010.5 |
| 20260510055752 | 9 | 98 | 0.0 | 0.0 | 0.00 | 0.00 | 0.00 | 98 | 1010.6 |
| 20260510055250 | 9 | 98 | 0.0 | 0.0 | 0.00 | 0.00 | 0.00 | 98 | 1010.5 |
| 20260510054750 | 9 | 98 | 0.0 | 0.0 | 0.00 | 0.00 | 0.00 | 98 | 1010.5 |
| 20260510054246 | 9 | 98 | 0.0 | 0.0 | 0.00 | 0.00 | 0.00 | 98 | 1010.8 |
| 20260510053746 | 9 | 98 | 0.0 | 0.0 | 0.00 | 0.00 | 0.00 | 98 | 1010.8 |
| 20260510053242 | 9 | 98 | 0.0 | 0.0 | 0.00 | 0.00 | 0.00 | 98 | 1010.9 |
| 20260510052738 | 8 | 98 | 0.0 | 0.0 | 0.00 | 0.00 | 0.00 | 98 | 1010.9 |
| 20260510052234 | 8 | 98 | 0.0 | 0.0 | 0.00 | 0.00 | 0.00 | 98 | 1010.9 |
| 20260510051730 | 8 | 98 | 0.0 | 0.0 | 0.00 | 0.00 | 0.00 | 98 | 1011.0 |
| 20260510051227 | 8 | 98 | 0.0 | 0.0 | 0.00 | 0.00 | 0.00 | 98 | 1010.9 |
| 20260510050724 | 8 | 98 | 0.0 | 0.0 | 0.00 | 0.00 | 0.00 | 98 | 1010.8 |
| 20260510050221 | 8 | 98 | 0.0 | 0.0 | 0.00 | 0.00 | 0.00 | 98 | 1011.0 |
| 20260510045718 | 8 | 98 | 0.0 | 0.0 | 0.00 | 0.00 | 0.00 | 98 | 1010.8 |
| 20260510045214 | 8 | 98 | 0.0 | 0.0 | 0.00 | 0.00 | 0.00 | 98 | 1011.0 |
| 20260510044710 | 8 | 98 | 0.0 | 0.0 | 0.00 | 0.00 | 0.00 | 98 | 1010.8 |
| 20260510044209 | 8 | 98 | 0.0 | 0.0 | 0.00 | 0.00 | 0.00 | 98 | 1011.1 |
| 20260510043704 | 8 | 98 | 0.0 | 0.0 | 0.00 | 0.00 | 0.00 | 98 | 1011.2 |
| 20260510043201 | 8 | 98 | 0.0 | 0.0 | 0.00 | 0.00 | 0.00 | 98 | 1011.1 |
| 20260510042658 | 8 | 98 | 0.0 | 0.0 | 0.00 | 0.00 | 0.00 | 98 | 1011.2 |
| 20260510042154 | 8 | 98 | 0.0 | 0.0 | 0.00 | 0.00 | 0.00 | 97 | 1011.2 |
| 20260510041651 | 8 | 98 | 0.0 | 0.0 | 0.00 | 0.00 | 0.00 | 97 | 1011.2 |
| 20260510041148 | 8 | 98 | 0.0 | 0.0 | 0.00 | 0.00 | 0.00 | 97 | 1010.9 |
| 20260510040645 | 8 | 98 | 0.0 | 0.0 | 0.00 | 0.00 | 0.00 | 97 | 1011.2 |
| 20260510040142 | 8 | 98 | 0.0 | 0.0 | 0.00 | 0.43 | 0.43 | 97 | 1011.0 |
| 20260510035637 | 8 | 98 | 0.0 | 0.0 | 0.00 | 0.43 | 0.43 | 97 | 1011.3 |
| 20260510035133 | 8 | 98 | 0.0 | 0.0 | 0.00 | 0.43 | 0.43 | 97 | 1011.2 |
| 20260510034630 | 8 | 98 | 0.0 | 0.0 | 0.00 | 0.43 | 0.43 | 97 | 1011.1 |
| 20260510034127 | 8 | 98 | 0.0 | 0.0 | 0.00 | 0.43 | 0.43 | 97 | 1011.2 |
| 20260510033623 | 8 | 98 | 0.0 | 0.0 | 0.00 | 0.43 | 0.43 | 97 | 1011.1 |
| 20260510033121 | 8 | 98 | 0.0 | 0.0 | 0.00 | 0.43 | 0.43 | 97 | 1011.0 |
| 20260510032617 | 9 | 98 | 0.0 | 0.0 | 0.00 | 0.43 | 0.43 | 97 | 1010.9 |
| 20260510032113 | 9 | 98 | 0.0 | 0.0 | 0.00 | 0.43 | 0.43 | 97 | 1011.1 |
| 20260510031608 | 9 | 98 | 0.0 | 0.0 | 0.00 | 0.43 | 0.43 | 97 | 1011.0 |
| 20260510031104 | 9 | 98 | 0.0 | 0.0 | 0.00 | 0.43 | 0.43 | 97 | 1010.9 |
| 20260510030559 | 9 | 98 | 0.0 | 0.0 | 0.00 | 0.43 | 0.43 | 97 | 1010.8 |
| 20260510030057 | 9 | 98 | 0.0 | 0.0 | 0.00 | 0.43 | 0.43 | 97 | 1010.6 |
| 20260510025554 | 9 | 98 | 0.0 | 0.0 | 0.00 | 0.43 | 0.43 | 97 | 1010.6 |
| 20260510025052 | 9 | 98 | 0.0 | 0.0 | 0.00 | 0.43 | 0.43 | 97 | 1010.6 |
| 20260510024548 | 10 | 98 | 0.0 | 0.0 | 0.00 | 0.43 | 0.43 | 97 | 1010.5 |
| 20260510024044 | 10 | 98 | 0.0 | 0.0 | 0.00 | 0.43 | 0.43 | 97 | 1010.8 |
| 20260510023541 | 10 | 98 | 0.0 | 0.0 | 0.00 | 0.43 | 0.43 | 97 | 1010.6 |
| 20260510023038 | 10 | 98 | 0.0 | 0.0 | 0.00 | 0.43 | 0.43 | 97 | 1010.6 |
| 20260510022537 | 10 | 98 | 0.0 | 0.0 | 0.00 | 0.43 | 0.43 | 96 | 1010.4 |
| 20260510022031 | 10 | 98 | 0.0 | 0.0 | 0.00 | 0.43 | 0.43 | 96 | 1010.8 |
| 20260510021528 | 10 | 98 | 0.0 | 0.0 | 0.00 | 0.43 | 0.43 | 96 | 1010.6 |
| 20260510021026 | 10 | 98 | 0.0 | 0.0 | 0.00 | 0.43 | 0.43 | 96 | 1010.6 |
| 20260510020520 | 10 | 98 | 0.0 | 0.0 | 0.00 | 0.43 | 0.43 | 96 | 1010.8 |
| 20260510020016 | 10 | 98 | 0.0 | 0.0 | 0.00 | 0.43 | 0.43 | 96 | 1010.5 |
| 20260510015512 | 10 | 98 | 0.0 | 0.0 | 0.00 | 0.43 | 0.43 | 96 | 1010.6 |
| 20260510015008 | 10 | 98 | 0.0 | 0.0 | 0.00 | 0.43 | 0.43 | 96 | 1010.8 |
| 20260510014505 | 10 | 98 | 0.0 | 0.0 | 0.00 | 0.43 | 0.43 | 96 | 1010.3 |
| 20260510014002 | 10 | 98 | 0.0 | 0.0 | 0.00 | 0.43 | 0.43 | 96 | 1010.3 |
| 20260510013456 | 10 | 98 | 0.0 | 0.0 | 0.00 | 0.43 | 0.43 | 96 | 1010.3 |
| 20260510012952 | 10 | 98 | 0.0 | 0.0 | 0.00 | 0.43 | 0.43 | 96 | 1010.5 |
| 20260510012447 | 11 | 98 | 0.0 | 0.0 | 0.00 | 0.43 | 0.43 | 95 | 1010.3 |
| 20260510011942 | 11 | 98 | 0.0 | 0.0 | 0.00 | 0.43 | 0.43 | 95 | 1010.3 |
| 20260510011437 | 11 | 98 | 0.0 | 0.0 | 0.00 | 0.43 | 0.43 | 95 | 1010.2 |
| 20260510010933 | 11 | 98 | 0.0 | 0.0 | 0.00 | 0.43 | 0.43 | 95 | 1010.3 |
| 20260510010431 | 11 | 98 | 0.0 | 0.0 | 0.00 | 0.43 | 0.43 | 95 | 1010.2 |
| 20260510005928 | 11 | 98 | 0.0 | 0.0 | 0.00 | 0.43 | 0.43 | 95 | 1010.0 |
| 20260510005423 | 11 | 98 | 0.0 | 0.0 | 0.00 | 0.43 | 0.43 | 94 | 1010.1 |
| 20260510004921 | 11 | 98 | 0.0 | 0.0 | 0.00 | 0.43 | 0.43 | 94 | 1010.1 |
| 20260510004418 | 11 | 98 | 0.0 | 0.0 | 0.00 | 0.43 | 0.43 | 94 | 1010.1 |
| 20260510003916 | 12 | 98 | 0.0 | 0.0 | 0.00 | 0.43 | 0.43 | 94 | 1009.9 |
| 20260510003413 | 12 | 98 | 0.0 | 0.0 | 0.00 | 0.43 | 0.43 | 94 | 1009.7 |
| 20260510002912 | 12 | 98 | 0.0 | 0.0 | 0.00 | 0.43 | 0.43 | 93 | 1009.8 |
| 20260510002409 | 12 | 98 | 0.0 | 0.0 | 0.00 | 0.43 | 0.43 | 93 | 1009.9 |
| 20260510001906 | 12 | 98 | 0.0 | 0.0 | 0.00 | 0.43 | 0.43 | 92 | 1010.0 |
| 20260510001403 | 12 | 98 | 0.0 | 0.0 | 0.00 | 0.43 | 0.43 | 91 | 1009.8 |
| 20260510000900 | 12 | 98 | 0.0 | 0.0 | 0.00 | 0.43 | 0.43 | 91 | 1009.7 |
| 20260510000357 | 13 | 98 | 0.0 | 0.0 | 0.00 | 0.43 | 0.43 | 89 | 1009.7 |
| 20260509235853 | 13 | 98 | 0.0 | 0.0 | 0.00 | 0.43 | 0.43 | 89 | 1009.6 |
| 20260509235350 | 13 | 98 | 0.0 | 0.0 | 0.00 | 0.43 | 0.43 | 89 | 1009.9 |
| 20260509234846 | 13 | 98 | 0.0 | 0.0 | 0.00 | 0.43 | 0.43 | 88 | 1009.9 |
| 20260509234343 | 14 | 98 | 0.0 | 0.0 | 0.00 | 0.43 | 0.43 | 88 | 1009.9 |
| 20260509233842 | 13 | 98 | 0.0 | 0.0 | 0.00 | 0.43 | 0.43 | 89 | 1009.8 |
| 20260509233339 | 13 | 98 | 0.0 | 0.0 | 0.00 | 0.43 | 0.43 | 89 | 1009.9 |
| 20260509232834 | 13 | 98 | 0.0 | 0.0 | 0.00 | 0.43 | 0.43 | 89 | 1009.9 |
| 20260509232332 | 13 | 98 | 0.0 | 0.0 | 0.00 | 0.43 | 0.43 | 89 | 1009.9 |
| 20260509231828 | 13 | 98 | 0.0 | 0.0 | 0.00 | 0.43 | 0.43 | 89 | 1010.0 |
| 20260509231325 | 13 | 98 | 1.6 | 3.2 | 0.00 | 0.43 | 0.43 | 89 | 1009.8 |
| 20260509230823 | 13 | 92 | 0.0 | 0.0 | 0.00 | 0.43 | 0.43 | 88 | 1009.9 |
| 20260509230320 | 14 | 106 | 3.2 | 3.2 | 0.00 | 0.43 | 0.43 | 88 | 1010.0 |
| 20260509225814 | 14 | 74 | 1.6 | 3.2 | 0.00 | 0.43 | 0.43 | 87 | 1009.7 |
| 20260509225312 | 15 | 73 | 1.6 | 0.0 | 0.00 | 0.43 | 0.43 | 86 | 1009.7 |
| 20260509224808 | 15 | 72 | 1.6 | 3.2 | 0.00 | 0.43 | 0.43 | 86 | 1009.8 |
| 20260509224304 | 15 | 70 | 1.6 | 3.2 | 0.00 | 0.43 | 0.43 | 84 | 1009.8 |
| 20260509223801 | 15 | 15 | 1.6 | 3.2 | 0.00 | 0.43 | 0.43 | 86 | 1009.8 |
| 20260509223258 | 15 | 15 | 0.0 | 0.0 | 0.00 | 0.43 | 0.43 | 87 | 1009.7 |
| 20260509222755 | 15 | 34 | 3.2 | 4.8 | 0.00 | 0.43 | 0.43 | 87 | 1009.6 |
| 20260509222250 | 15 | 346 | 1.6 | 3.2 | 0.00 | 0.43 | 0.43 | 88 | 1009.7 |
| 20260509221746 | 15 | 345 | 0.0 | 0.0 | 0.00 | 0.43 | 0.43 | 87 | 1009.9 |
| 20260509221243 | 15 | 343 | 0.0 | 0.0 | 0.00 | 0.43 | 0.43 | 87 | 1009.8 |
| 20260509220738 | 15 | 54 | 1.6 | 3.2 | 0.00 | 0.43 | 0.43 | 87 | 1009.5 |
| 20260509220235 | 15 | 11 | 1.6 | 3.2 | 0.00 | 0.43 | 0.43 | 87 | 1009.4 |
| 20260509215730 | 15 | 12 | 0.0 | 0.0 | 0.00 | 0.43 | 0.43 | 86 | 1009.8 |
| 20260509215227 | 15 | 12 | 0.0 | 0.0 | 0.00 | 0.43 | 0.43 | 85 | 1009.7 |
| 20260509214725 | 15 | 12 | 0.0 | 0.0 | 0.00 | 0.43 | 0.43 | 84 | 1009.6 |
| 20260509214221 | 15 | 0 | 1.6 | 3.2 | 0.00 | 0.43 | 0.43 | 84 | 1009.5 |
| 20260509213718 | 15 | 0 | 0.0 | 0.0 | 0.00 | 0.43 | 0.43 | 84 | 1009.6 |
| 20260509213214 | 15 | 0 | 0.0 | 0.0 | 0.00 | 0.43 | 0.43 | 83 | 1009.6 |
| 20260509212712 | 15 | 359 | 0.0 | 0.0 | 0.00 | 0.43 | 0.43 | 84 | 1009.5 |
| 20260509212208 | 15 | 359 | 0.0 | 0.0 | 0.00 | 0.43 | 0.43 | 85 | 1010.0 |
| 20260509211705 | 15 | 0 | 0.0 | 0.0 | 0.00 | 0.43 | 0.43 | 87 | 1009.9 |
| 20260509211201 | 15 | 0 | 0.0 | 0.0 | 0.00 | 0.43 | 0.43 | 83 | 1009.9 |
| 20260509210658 | 15 | 0 | 0.0 | 0.0 | 0.00 | 0.43 | 0.43 | 82 | 1009.9 |
| 20260509210155 | 15 | 359 | 0.0 | 0.0 | 0.00 | 0.43 | 0.43 | 81 | 1009.8 |
| 20260509205650 | 15 | 359 | 0.0 | 0.0 | 0.00 | 0.43 | 0.43 | 81 | 1010.1 |
| 20260509205149 | 15 | 0 | 0.0 | 0.0 | 0.00 | 0.43 | 0.43 | 82 | 1010.0 |
| 20260509204646 | 15 | 0 | 3.2 | 3.2 | 0.00 | 0.43 | 0.43 | 78 | 1010.2 |
| 20260509204142 | 15 | 3 | 1.6 | 3.2 | 0.00 | 0.43 | 0.43 | 84 | 1010.0 |
| 20260509203638 | 15 | 14 | 0.0 | 0.0 | 0.00 | 0.43 | 0.43 | 84 | 1009.7 |
| 20260509203137 | 15 | 359 | 3.2 | 3.2 | 0.00 | 0.43 | 0.43 | 84 | 1009.9 |
| 20260509202637 | 15 | 20 | 4.8 | 8.0 | 0.00 | 0.43 | 0.43 | 83 | 1009.9 |
| 20260509202132 | 14 | 5 | 0.0 | 0.0 | 0.00 | 0.43 | 0.43 | 87 | 1010.1 |
| 20260509201627 | 13 | 5 | 0.0 | 0.0 | 0.00 | 0.43 | 0.43 | 88 | 1009.7 |
| 20260509201125 | 13 | 9 | 0.0 | 0.0 | 0.00 | 0.43 | 0.43 | 89 | 1009.9 |
| 20260509200621 | 13 | 9 | 0.0 | 0.0 | 0.00 | 0.43 | 0.43 | 89 | 1009.8 |
| 20260509200117 | 13 | 10 | 0.0 | 0.0 | 0.00 | 0.43 | 0.43 | 89 | 1010.1 |
| 20260509195612 | 13 | 9 | 0.0 | 0.0 | 0.00 | 0.43 | 0.43 | 90 | 1010.2 |
| 20260509195107 | 13 | 10 | 3.2 | 3.2 | 0.00 | 0.43 | 0.43 | 89 | 1010.1 |
| 20260509194606 | 13 | 12 | 0.0 | 0.0 | 0.00 | 0.43 | 0.43 | 89 | 1010.1 |
| 20260509194105 | 13 | 12 | 3.2 | 4.8 | 0.13 | 0.43 | 0.43 | 90 | 1010.4 |
| 20260509193600 | 13 | 352 | 4.8 | 4.8 | 0.13 | 0.43 | 0.43 | 90 | 1010.3 |
| 20260509193056 | 13 | 2 | 3.2 | 3.2 | 0.00 | 0.41 | 0.41 | 91 | 1010.6 |
| 20260509192553 | 13 | 355 | 1.6 | 3.2 | 0.00 | 0.41 | 0.41 | 91 | 1010.4 |
| 20260509192043 | 13 | 355 | 0.0 | 0.0 | 0.00 | 0.41 | 0.41 | 91 | 1010.6 |
| 20260509191542 | 13 | 1 | 0.0 | 0.0 | 0.00 | 0.41 | 0.41 | 91 | 1010.8 |
| 20260509191038 | 13 | 354 | 0.0 | 0.0 | 0.00 | 0.41 | 0.41 | 91 | 1011.0 |
| 20260509190536 | 13 | 356 | 1.6 | 0.0 | 0.30 | 0.41 | 0.41 | 91 | 1010.9 |
| 20260509190034 | 13 | 356 | 1.6 | 3.2 | 0.30 | 0.41 | 0.41 | 90 | 1011.1 |
| 20260509185531 | 13 | 0 | 3.2 | 4.8 | 0.18 | 0.36 | 0.36 | 90 | 1011.1 |
| 20260509185027 | 13 | 347 | 1.6 | 3.2 | 0.18 | 0.36 | 0.36 | 90 | 1011.3 |
| 20260509184525 | 13 | 339 | 3.2 | 3.2 | 0.00 | 0.33 | 0.33 | 89 | 1011.5 |
| 20260509184021 | 13 | 357 | 3.2 | 4.8 | 0.00 | 0.33 | 0.33 | 88 | 1011.6 |
| 20260509183516 | 13 | 347 | 3.2 | 3.2 | 0.00 | 0.33 | 0.33 | 89 | 1011.7 |
| 20260509183013 | 13 | 345 | 6.4 | 8.0 | 0.13 | 0.33 | 0.33 | 88 | 1011.4 |
| 20260509182509 | 13 | 340 | 3.2 | 4.8 | 0.13 | 0.33 | 0.33 | 89 | 1011.3 |
| 20260509182006 | 13 | 324 | 1.6 | 3.2 | 0.00 | 0.30 | 0.30 | 89 | 1011.5 |
| 20260509181504 | 13 | 317 | 0.0 | 0.0 | 0.00 | 0.30 | 0.30 | 88 | 1011.5 |
| 20260509181002 | 13 | 297 | 0.0 | 0.0 | 0.00 | 0.30 | 0.30 | 89 | 1011.4 |
| 20260509180457 | 13 | 297 | 0.0 | 0.0 | 0.18 | 0.30 | 0.30 | 88 | 1011.7 |
| 20260509175954 | 13 | 297 | 1.6 | 3.2 | 0.18 | 0.30 | 0.30 | 88 | 1011.8 |
| 20260509175450 | 13 | 297 | 0.0 | 0.0 | 0.00 | 0.28 | 0.28 | 88 | 1011.6 |
| 20260509174948 | 13 | 297 | 0.0 | 0.0 | 0.13 | 0.28 | 0.28 | 87 | 1011.4 |
| 20260509174444 | 13 | 297 | 0.0 | 0.0 | 0.13 | 0.28 | 0.28 | 87 | 1011.5 |
| 20260509173939 | 13 | 297 | 1.6 | 0.0 | 0.18 | 0.25 | 0.25 | 87 | 1011.5 |
| 20260509173438 | 13 | 297 | 0.0 | 0.0 | 0.36 | 0.25 | 0.25 | 87 | 1011.5 |
| 20260509172935 | 13 | 297 | 1.6 | 3.2 | 0.36 | 0.25 | 0.25 | 88 | 1011.4 |
| 20260509172432 | 13 | 297 | 0.0 | 0.0 | 0.13 | 0.20 | 0.20 | 89 | 1011.5 |
| 20260509171928 | 14 | 297 | 0.0 | 0.0 | 0.30 | 0.20 | 0.20 | 89 | 1011.4 |
| 20260509171424 | 14 | 296 | 1.6 | 3.2 | 0.18 | 0.18 | 0.18 | 89 | 1011.5 |
| 20260509170921 | 14 | 296 | 0.0 | 0.0 | 0.13 | 0.15 | 0.15 | 88 | 1011.4 |
| 20260509170416 | 13 | 296 | 0.0 | 0.0 | 0.13 | 0.15 | 0.15 | 89 | 1011.3 |
| 20260509165912 | 14 | 296 | 0.0 | 0.0 | 0.00 | 0.13 | 0.13 | 89 | 1011.2 |
| 20260509165406 | 14 | 296 | 0.0 | 0.0 | 0.18 | 0.13 | 0.13 | 87 | 1011.2 |
| 20260509164902 | 14 | 296 | 0.0 | 0.0 | 0.18 | 0.13 | 0.13 | 85 | 1011.1 |
| 20260509164359 | 14 | 296 | 0.0 | 0.0 | 0.18 | 0.13 | 0.13 | 84 | 1011.3 |
| 20260509163854 | 14 | 296 | 0.0 | 0.0 | 0.00 | 0.10 | 0.10 | 84 | 1011.4 |
| 20260509163352 | 14 | 296 | 0.0 | 0.0 | 0.13 | 0.10 | 0.10 | 84 | 1011.6 |
| 20260509162851 | 14 | 298 | 0.0 | 0.0 | 0.13 | 0.10 | 0.10 | 83 | 1011.4 |
| 20260509162349 | 14 | 333 | 3.2 | 3.2 | 0.00 | 0.08 | 0.08 | 83 | 1011.6 |
| 20260509161846 | 14 | 343 | 0.0 | 0.0 | 0.18 | 0.08 | 0.08 | 82 | 1011.5 |
| 20260509161342 | 14 | 19 | 1.6 | 3.2 | 0.30 | 0.08 | 0.08 | 82 | 1011.6 |
| 20260509160838 | 15 | 288 | 1.6 | 3.2 | 0.13 | 0.05 | 0.05 | 82 | 1011.8 |
| 20260509160334 | 15 | 303 | 1.6 | 3.2 | 0.18 | 0.03 | 0.03 | 80 | 1011.8 |
| 20260509155829 | 15 | 270 | 8.0 | 8.0 | 0.18 | 0.03 | 0.03 | 79 | 1011.8 |
| 20260509155326 | 15 | 260 | 6.4 | 8.0 | 0.00 | 0.00 | 0.00 | 77 | 1012.0 |
| 20260509154822 | 15 | 238 | 3.2 | 3.2 | 0.00 | 0.00 | 0.00 | 77 | 1011.8 |
| 20260509154319 | 15 | 309 | 6.4 | 4.8 | 0.00 | 0.00 | 0.00 | 78 | 1011.9 |
| 20260509153816 | 16 | 123 | 3.2 | 4.8 | 0.00 | 0.00 | 0.00 | 78 | 1011.8 |